Theta_e
321 316 315 314 302 302 298 301 305 304 303 304 311 312 310 310 309 307 323 326 328 331 335 338 341 342 342 342 341 341 341 341 341 340 339 338 338 338 338 338 338 338 339 339 338 336 336 336 337
316 315 315 309 298 294 297 303 302 304 305 308 309 309 310 305 315 316 318 324 326 330 333 334 338 339 339 339 338 338 338 337 336 335 335 334 335 334 334 333 334 334 334 334 333 332 331 330 330
314 314 307 302 297 293 295 302 302 303 304 304 303 308 307 307 316 317 321 324 325 328 330 332 335 336 336 335 334 334 333 332 332 332 332 331 330 330 329 329 328 328 328 328 327 326 324 324 324
309 307 306 297 294 299 299 300 302 302 302 303 303 301 304 313 316 319 322 323 323 325 327 331 332 333 332 332 331 330 329 328 328 328 327 327 326 325 325 325 324 324 324 323 323 321 320 320 320
310 305 296 293 294 298 299 300 301 300 300 302 302 300 301 311 320 321 321 322 320 322 325 326 329 329 328 328 327 326 325 325 324 324 323 323 322 322 321 321 321 320 320 319 319 318 316 316 316
301 302 292 290 294 298 300 301 299 299 299 301 300 300 302 311 317 319 322 321 321 321 322 322 324 326 325 324 323 322 321 321 320 320 319 318 318 317 317 317 317 317 316 316 315 314 313 313 313
301 296 292 292 293 294 297 300 296 299 299 300 301 299 302 308 316 318 319 320 320 319 318 317 316 319 321 321 319 318 317 316 315 315 313 312 312 312 312 312 313 313 313 313 312 311 311 311 310
303 298 292 290 291 292 296 297 298 299 298 302 302 298 298 309 316 316 315 315 314 316 315 315 313 312 312 312 316 313 312 311 309 308 309 309 308 307 307 307 308 309 309 310 310 309 309 309 309
305 293 290 292 292 293 296 295 297 297 296 300 301 300 307 314 314 312 310 309 309 311 310 310 309 310 309 308 308 309 309 308 307 305 305 306 299 300 300 303 304 305 306 306 308 308 308 308 308
297 292 293 294 293 293 295 294 295 294 296 297 299 302 311 312 310 308 306 305 304 303 304 305 306 306 306 305 306 304 304 303 302 302 301 301 298 297 300 301 301 302 305 306 307 307 306 304 298
297 294 294 294 295 294 295 293 295 294 293 294 295 301 308 308 308 308 307 306 303 302 301 302 303 302 301 302 302 301 302 301 301 301 301 301 301 299 298 297 297 297 302 298 299 298 297 297 297
293 296 295 296 294 294 293 294 293 293 292 297 296 303 306 306 307 307 307 306 304 301 300 302 302 302 302 301 301 301 301 300 300 300 300 299 299 298 296 296 296 295 296 295 295 296 296 297 297
294 294 295 295 294 293 294 292 290 291 295 296 297 299 302 304 306 308 309 308 306 301 300 300 301 301 302 301 300 301 298 299 299 299 300 299 298 297 297 296 295 295 295 294 294 294 295 295 296
294 294 293 294 294 294 291 290 290 291 292 293 295 295 297 301 303 306 307 306 304 303 300 300 301 301 302 300 299 299 299 298 299 299 299 299 298 296 296 296 295 295 294 294 294 294 294 294 295
294 290 291 292 294 293 292 289 289 291 293 291 294 294 295 296 298 301 306 306 304 303 302 300 300 301 300 300 299 298 299 300 298 297 297 297 298 296 295 295 295 294 295 294 294 294 294 294 295
290 289 285 291 293 293 291 287 291 291 291 293 293 294 295 296 298 298 302 305 305 303 301 301 302 300 299 299 298 299 298 297 296 296 296 297 297 296 294 294 294 295 294 294 293 293 292 292 292
288 286 286 288 292 291 290 288 292 293 293 292 293 293 294 295 296 297 299 301 304 303 302 301 300 299 299 299 298 297 298 296 296 295 295 296 296 296 294 294 294 294 294 294 293 292 292 291 292
286 283 287 286 288 289 288 289 292 292 292 289 290 291 292 293 294 296 297 299 301 303 302 301 300 300 299 299 297 297 296 296 296 295 295 296 296 295 294 293 293 293 292 292 292 291 292 292 292
288 286 285 288 289 285 287 286 288 289 289 289 289 290 291 292 295 296 297 296 299 300 301 300 300 299 298 296 296 295 294 295 295 296 296 296 295 295 293 292 292 292 291 291 291 291 290 290 291
288 284 284 287 288 284 285 283 287 288 287 288 288 288 290 291 293 295 295 296 298 299 300 300 300 300 299 299 298 297 296 296 297 297 296 296 296 296 294 292 291 291 290 290 290 290 289 290 291
284 282 281 281 285 284 282 281 284 287 288 289 288 289 290 290 291 292 295 295 297 298 298 299 299 299 299 299 298 296 296 295 294 295 295 296 296 296 295 293 292 292 292 290 290 289 288 287 289
283 284 284 281 279 276 281 274 281 285 285 286 287 286 287 288 291 293 293 294 296 298 299 299 300 300 299 298 295 294 293 292 294 293 295 295 294 293 293 293 291 290 290 290 289 291 289 288 286
280 284 281 279 276 275 276 272 280 285 283 283 284 286 287 288 289 291 292 294 295 296 296 297 298 298 297 297 296 294 294 294 294 293 293 293 293 293 293 292 290 290 290 290 290 289 289 289 287
285 280 279 278 277 269 269 271 276 280 282 282 285 285 287 287 288 290 291 293 293 294 294 294 295 295 296 296 295 294 293 293 292 292 292 292 293 293 292 292 290 290 290 290 290 290 289 289 288
281 276 272 271 270 272 265 271 277 281 283 284 284 285 286 287 287 288 288 289 290 290 291 292 293 293 294 294 294 293 293 292 292 292 291 292 291 291 291 290 290 289 290 291 290 289 289 288 287
278 276 272 265 268 271 267 266 276 282 285 285 286 285 286 286 287 287 288 288 288 289 289 290 290 290 291 291 291 292 292 291 291 292 291 291 291 292 292 290 290 290 291 290 289 289 288 287 286
278 273 276 267 262 265 273 276 279 281 280 283 283 283 283 285 286 287 287 287 287 287 288 288 288 289 290 290 290 290 291 290 290 291 291 291 291 292 291 290 289 290 290 290 289 288 287 287 287
278 278 271 271 263 263 270 268 273 273 272 276 280 278 280 283 285 286 286 286 286 286 286 286 287 287 288 289 289 290 289 290 290 290 290 290 291 291 290 289 289 289 289 289 288 287 287 286 286
272 272 273 273 274 267 265 272 279 273 277 274 273 277 274 275 282 283 285 286 286 286 285 284 285 285 285 286 287 287 288 288 289 288 289 289 290 290 290 289 288 289 289 288 288 287 287 286 286
278 277 278 270 266 269 270 269 275 273 275 274 272 275 276 275 277 278 283 285 285 284 283 283 284 284 285 286 286 286 287 287 286 287 288 289 289 289 289 289 288 288 288 288 287 286 287 286 285
Wind_Speed
16 6 3 3 2 3 7 5 4 1 2 3 4 4 6 9 5 3 8 8 6 7 8 11 15 17 18 18 19 18 17 17 18 17 15 15 15 15 16 16 15 15 15 15 15 13 13 12 14
8 8 2 4 2 5 6 10 8 4 7 6 3 4 3 6 7 9 6 5 4 8 8 9 14 16 18 19 19 19 17 17 15 15 14 15 16 16 16 16 16 15 14 14 14 14 14 13 13
7 5 1 3 4 7 6 7 8 8 5 3 4 5 5 4 9 5 10 8 6 10 9 8 14 17 18 19 19 18 18 16 15 15 15 15 15 16 16 16 15 15 14 14 14 14 14 14 14
4 2 4 3 9 9 11 7 8 7 3 1 4 7 6 5 4 9 12 10 10 8 9 9 16 16 17 17 18 17 17 15 15 14 14 15 15 16 15 15 14 14 14 14 13 14 13 13 13
3 3 4 5 11 12 3 7 7 4 2 8 3 6 5 4 9 12 11 12 11 9 7 11 14 16 16 17 17 18 17 15 13 14 14 15 15 15 15 15 14 14 14 14 13 13 13 13 13
3 3 4 9 11 13 5 7 4 3 2 5 1 4 5 6 7 10 11 13 13 11 9 10 11 14 15 17 16 16 16 14 13 15 14 14 15 15 15 14 14 14 14 14 14 14 13 12 13
3 3 7 9 6 6 5 7 2 7 4 4 3 4 4 6 8 7 7 10 14 13 11 9 9 12 14 14 15 15 16 15 13 14 15 15 15 14 14 14 14 14 13 13 13 13 14 12 12
3 2 6 4 5 1 5 2 6 6 6 2 4 3 5 10 9 6 8 8 8 8 10 10 8 8 8 8 13 14 15 14 13 11 10 11 12 13 13 12 13 12 12 12 13 13 13 14 11
2 3 4 3 2 5 4 3 3 2 2 4 6 5 6 13 9 8 6 5 6 5 7 7 7 9 9 8 8 11 13 12 10 6 1 3 5 6 7 7 7 10 9 10 12 13 13 14 15
3 2 6 7 7 7 4 4 5 3 6 5 7 5 13 11 9 9 8 7 6 5 6 5 6 7 7 7 5 5 5 4 4 4 5 3 4 2 2 2 1 2 10 12 13 13 13 10 5
2 2 5 8 8 8 6 3 3 5 3 8 4 11 11 9 8 9 8 8 8 8 5 6 5 5 5 6 4 2 2 3 3 5 3 3 3 3 2 3 3 4 7 4 6 6 4 6 5
2 4 4 5 4 5 5 7 5 4 2 7 8 11 9 9 9 8 8 9 9 9 8 6 7 5 5 3 3 4 3 2 3 3 4 3 3 4 4 3 4 3 3 5 5 4 6 7 7
2 5 3 3 2 4 6 5 3 6 6 8 8 3 9 9 9 8 8 7 9 8 8 7 6 5 5 3 3 4 3 3 3 3 4 4 3 3 3 3 3 3 4 4 4 5 5 5 6
4 3 4 2 3 1 4 4 4 4 5 6 3 5 5 7 8 7 7 6 8 8 8 8 7 7 6 5 4 3 4 3 3 3 3 4 3 3 3 3 4 4 4 4 4 4 5 5 5
3 3 3 3 2 1 3 3 6 4 3 3 5 2 2 1 2 4 8 6 8 7 8 8 8 8 7 7 5 3 3 3 2 3 3 3 4 4 3 3 3 4 4 6 5 5 5 5 5
3 2 3 3 7 2 3 4 5 2 2 5 7 6 4 4 3 2 3 8 7 8 9 8 7 8 7 7 5 4 3 2 3 2 3 3 3 3 4 2 3 3 4 4 4 4 4 5 5
1 2 3 5 3 4 3 2 4 5 6 3 5 2 3 7 6 1 4 5 8 9 9 9 8 8 7 7 5 5 5 3 2 2 2 4 2 2 2 2 2 3 3 4 3 4 4 4 5
2 3 2 3 4 5 6 8 7 8 8 6 9 9 8 8 7 8 8 5 4 6 9 10 7 8 7 5 4 3 3 2 3 2 2 4 2 1 1 2 1 2 3 3 4 4 4 4 5
6 4 5 5 3 4 4 6 5 7 9 8 8 8 8 8 6 7 7 5 3 4 7 9 8 7 5 3 3 2 3 3 3 4 5 4 3 2 2 1 2 2 2 3 3 3 4 4 4
4 3 2 3 1 3 6 8 8 5 6 6 7 8 8 7 8 7 7 6 3 4 4 8 8 8 5 4 3 1 2 2 2 2 4 5 4 3 3 3 2 2 1 3 3 3 3 3 4
5 3 4 2 7 2 6 3 7 5 7 8 8 8 8 8 7 7 8 8 4 4 3 4 6 7 4 3 3 4 4 2 0 2 3 4 5 5 4 4 3 3 2 3 2 2 3 2 3
2 5 3 3 5 3 4 3 6 8 7 8 7 8 7 8 8 7 7 8 8 7 7 6 5 6 5 5 4 4 3 2 2 2 3 3 5 5 5 5 4 4 3 3 3 2 0 2 3
2 2 3 2 1 4 2 4 5 11 7 8 6 7 8 8 8 7 7 7 7 7 7 6 6 5 4 4 3 3 3 3 2 1 3 4 5 6 6 6 5 4 3 3 3 3 3 2 2
3 1 2 2 1 2 3 4 5 5 4 7 6 7 7 7 8 8 8 7 7 6 6 6 5 4 3 1 2 3 4 4 3 3 3 4 4 4 6 6 5 5 4 4 4 4 4 4 3
0 1 2 4 3 5 4 2 9 5 6 10 8 7 7 8 8 8 8 8 8 8 8 6 7 5 3 1 3 3 4 5 6 6 4 5 4 3 5 6 6 5 5 5 4 4 5 4 2
1 2 5 5 1 3 3 7 6 7 7 9 8 7 8 8 7 8 8 7 7 7 8 8 8 7 8 7 7 5 5 3 4 5 4 4 4 4 5 5 6 6 5 5 5 4 4 4 4
2 1 2 6 1 4 5 4 1 6 5 8 7 7 6 7 7 7 7 6 6 7 7 7 7 7 7 7 6 7 6 6 5 7 6 4 5 4 5 5 5 6 6 6 6 4 5 4 5
1 1 4 2 1 5 5 5 7 6 6 4 5 2 4 5 6 6 5 5 5 6 6 8 6 6 5 6 5 5 6 7 7 6 7 7 6 6 6 6 6 6 6 6 6 5 5 5 4
1 1 1 2 3 5 3 8 2 7 11 10 5 1 2 4 4 4 5 5 5 5 6 6 6 6 6 6 6 6 6 6 6 6 6 7 6 7 7 7 7 7 8 7 6 7 6 7 6
3 2 5 5 6 2 2 11 5 2 9 9 6 5 3 3 5 4 5 5 5 5 6 6 6 6 6 6 6 7 7 7 6 6 7 7 7 7 7 7 8 8 8 7 8 8 7 7 6
Wind_Direction
305 276 317 304 266 203 260 228 197 162 109 42 11 14 84 44 39 101 84 65 39 58 45 72 86 91 89 87 84 80 76 76 71 71 74 76 74 70 71 67 64 60 56 53 50 43 40 35 34
303 303 267 270 248 262 242 221 149 45 80 89 68 329 32 84 79 112 112 84 21 92 61 68 85 91 94 89 87 84 81 74 74 77 76 73 70 67 64 64 60 57 54 49 45 42 38 34 29
266 257 259 207 224 250 278 66 55 85 63 18 110 44 9 70 114 89 95 118 70 91 80 76 89 92 91 93 88 85 82 81 75 74 73 72 70 67 63 61 60 55 51 48 41 37 33 29 23
240 187 280 257 255 233 239 61 62 108 86 67 10 106 84 346 66 109 123 111 92 77 82 90 89 93 95 92 95 91 86 81 79 78 75 77 70 68 65 61 58 55 51 46 43 36 27 25 20
239 235 234 223 256 275 87 56 21 327 265 141 158 142 88 56 96 122 129 119 104 93 75 88 92 95 97 94 92 94 92 86 87 83 78 73 71 67 63 60 55 50 47 43 37 36 29 23 18
249 272 242 231 241 231 104 101 21 257 332 93 83 154 86 132 125 141 147 137 123 112 92 87 79 92 97 98 96 96 93 92 89 86 79 74 70 63 58 55 52 48 42 38 32 27 25 20 14
275 195 263 275 308 4 73 56 290 266 196 99 22 48 102 152 132 138 137 117 127 123 111 98 84 76 80 90 96 95 95 92 84 83 83 76 68 63 60 48 46 41 37 32 25 19 13 8 10
303 329 265 241 287 144 45 31 13 328 51 101 22 43 144 150 128 121 91 98 101 112 120 112 113 107 89 78 91 96 95 93 86 85 91 100 88 75 55 47 41 36 29 24 17 12 6 359 344
283 290 265 264 54 73 91 343 86 353 322 46 46 54 94 126 129 117 112 108 101 116 111 135 136 121 115 105 100 100 107 104 111 96 69 53 47 54 88 65 43 32 21 11 8 5 1 4 357
253 266 17 15 42 24 56 352 359 338 183 137 110 100 112 129 145 151 156 153 144 135 124 120 117 127 146 130 149 141 139 96 80 63 51 75 98 80 73 116 41 343 7 8 4 3 7 359 345
200 318 357 50 28 360 352 294 48 309 298 28 85 140 140 150 167 169 177 166 162 160 146 140 124 125 131 115 138 117 112 106 87 67 79 46 60 21 20 31 25 358 18 2 355 353 357 341 336
278 60 12 25 32 348 2 325 304 224 92 76 52 139 147 170 182 184 183 169 161 151 143 145 130 140 98 110 115 116 104 115 93 82 37 40 49 32 9 25 5 10 4 2 356 345 343 339 328
245 101 53 65 20 360 334 275 303 293 297 122 98 58 162 180 184 185 185 170 151 149 142 153 143 127 119 114 90 95 126 95 119 96 42 34 51 37 14 5 4 356 22 9 347 338 329 330 320
10 52 81 52 46 40 333 306 45 87 41 76 109 190 208 185 187 173 168 177 148 146 150 157 159 142 145 124 121 107 97 118 96 86 89 59 33 43 23 11 352 15 14 351 333 331 332 324 324
139 162 181 82 10 355 326 261 220 170 119 276 129 135 78 31 336 190 170 178 162 159 157 155 158 145 154 139 130 126 133 128 115 111 87 66 43 22 16 8 358 21 343 346 344 342 339 335 327
217 239 188 60 339 156 276 124 104 113 232 130 130 134 142 169 164 263 198 166 176 159 160 153 164 149 156 147 144 143 148 157 132 122 125 92 58 32 359 10 12 15 336 338 352 344 338 327 327
200 264 226 132 40 302 236 356 168 187 196 310 347 83 100 42 33 130 196 193 183 165 154 150 151 156 165 149 152 150 150 146 138 146 152 139 128 57 3 356 0 23 334 332 357 348 335 326 316
238 222 209 58 9 333 278 269 344 19 26 20 64 51 46 44 29 2 347 340 169 164 151 147 150 159 162 144 134 135 142 184 155 188 160 136 157 90 8 325 348 2 341 340 356 337 332 317 315
330 6 9 92 32 329 295 335 16 8 35 43 58 70 51 41 47 34 357 319 164 151 138 141 151 162 146 140 145 165 195 194 177 183 159 179 187 202 247 286 345 1 359 321 316 318 323 312 326
8 38 21 97 26 345 334 309 69 58 70 60 58 64 62 39 27 27 13 22 49 148 161 147 156 153 158 164 198 139 139 116 134 162 166 184 191 201 236 226 267 273 298 312 315 343 324 295 359
47 19 29 351 329 206 305 237 120 105 83 68 44 53 55 60 41 31 31 25 48 82 82 128 143 147 148 144 88 51 34 35 20 214 202 201 193 199 216 233 225 241 237 252 278 292 316 324 313
127 356 36 358 14 239 26 256 161 153 127 83 52 48 47 50 58 48 49 37 34 29 46 58 92 115 133 132 119 178 194 215 219 153 176 177 186 219 229 220 233 232 236 251 254 261 351 292 292
116 15 42 65 312 33 325 80 216 147 128 88 72 61 53 55 53 56 65 73 58 45 42 47 75 91 99 131 175 204 235 247 257 258 192 206 212 210 228 227 235 241 243 244 243 266 261 259 265
116 339 38 221 139 15 235 113 233 186 124 110 87 71 51 57 53 49 46 55 52 53 56 51 62 78 96 136 218 260 279 290 295 280 257 238 226 214 209 213 217 235 240 238 242 242 250 250 254
179 28 337 353 2 233 300 353 241 127 92 121 111 84 65 48 48 43 42 36 38 30 26 35 28 23 35 346 306 293 283 286 282 278 265 262 249 234 220 204 210 223 231 231 224 240 244 246 237
51 127 149 217 227 285 351 240 265 115 104 102 90 68 54 44 37 44 42 47 45 34 32 32 31 18 5 359 343 326 307 279 263 268 273 261 245 234 224 211 197 222 233 232 231 230 234 219 231
197 50 13 95 44 49 218 277 129 142 165 110 84 65 38 26 39 44 37 35 46 39 27 34 33 24 15 1 344 327 316 309 285 272 269 265 260 250 240 214 213 227 230 225 224 227 232 227 234
130 132 58 335 72 278 279 270 236 187 222 135 105 55 11 8 24 22 22 16 26 47 22 6 11 16 355 347 343 333 322 318 305 293 277 271 267 250 241 225 218 224 228 222 219 222 224 222 233
123 237 340 84 155 191 273 260 308 215 179 151 188 227 273 311 329 339 338 339 4 26 10 339 341 357 344 337 323 322 314 310 303 292 276 260 261 252 239 225 218 221 220 219 222 221 217 222 227
359 300 190 136 261 225 159 271 324 187 134 140 192 224 260 257 277 290 315 324 337 339 343 325 329 344 327 318 314 310 310 313 318 309 303 289 261 248 242 228 223 223 222 214 219 224 226 224 227